sat.trackr.live / text

‹ back to catalog

STARLINK-34684

NORAD 64862 · 2025-152W

PAYLOAD ACTIVE UNKNOWN

§ Identity

Operator
Country
US
Launch date
2025-07-19
Launch site
AFWTR
Launch vehicle
Mass (kg)
RCS (m²)

Purposes: comms

External: N2YO · Heavens-Above · Gunter

§ Orbital elements

Epoch: 2026-05-25T03:24:16.106112Z

Period
95.64 min
Inclination
97.4476°
Eccentricity
0.0001571
Mean motion
15.05656957 rev/d
Perigee alt
548.4 km
Apogee alt
550.6 km
Semi-major
6,927.6 km
B*
1.1951e-4
RAAN
0.5284°
Arg perigee
98.4992°
Mean anomaly
261.6413°
Rev number
4,692

§ Raw data

STARLINK-346841 64862U 25152W   26145.14185308  .00001666  00000+0  11951-3 0  99972 64862  97.4476   0.5284 0001571  98.4992 261.6413 15.05656957 46922

JSON: /api/v1/satellites/64862 · /tle

For live sub-satellite position, see the globe view (requires WebGL).

§ Visibility from observer

Set your observer location to see the next 7 days of passes ≥ 10°. The values pass through the URL so the page stays shareable.

No JS? Fill the form by hand. The geolocation button needs JavaScript.